Location: Bemmer
(51.5498°N, 5.6249°E)
Time: 01:46:36
(UTC+00:00)

Cosmos 2221 Rocket - Pass Details

Date: 03 March 2021
Orbit: 621 x 647 km, 82.5° (Epoch: 13 April)

Event Time Altitude Azimuth Distance (km) Brightness Sun altitude
Rises 20:17:01 0° 345° (NNW) 2,915 7.6 -27.4°
Reaches altitude 10° 20:19:18 10° 341° (NNW) 2,004 6.7 -27.7°
Enters shadow 20:23:13 51° 285° (WNW) 794 4.3 -28.2°
